Weather History for Beverly, MA

Change the Weather History Date:

Sunday, May 6, 2012

  Actual Average Record
Temperature  
Mean Temperature 46 °F -  
Max Temperature 54 °F 61 °F 78 °F (2002)
Min Temperature 39 °F 41 °F 30 °F (2001)
Degree Days  
Heating Degree Days 18    
Moisture  
Dew Point 41 °F    
Average Humidity 82    
Maximum Humidity 100    
Minimum Humidity 52    
Precipitation  
Precipitation 0.00 in - - ()
Sea Level Pressure  
Sea Level Pressure 30.09 in    
Wind  
Wind Speed 3 mph (East)    
Max Wind Speed 12 mph    
Max Gust Speed -    
Visibility 8 miles    
Events      
Averages and records for this station are not official NWS values.
T = Trace of Precipitation, MM = Missing Value Source: NWS Daily Summary

Daily Weather History Graph

Daily Weather History Graph

Search for Another Location

Airport:

Trip Planner

Search our weather history database for the weather conditions in past years. The results will help you decide how hot, cold, wet, or windy it might be!

Date:

Astronomy

May. 06, 2012 Rise Set
Actual Time 5:31 AM EDT 7:49 PM EDT
Civil Twilight 4:59 AM EDT 8:21 PM EDT
Nautical Twilight 4:21 AM EDT 9:00 PM EDT
Astronomical Twilight 3:38 AM EDT 9:43 PM EDT
Moon 8:53 PM EDT (5/6) 5:38 AM EDT (5/6)
Length of Visible Light 15h 21m
Length of Day
14h 18m
Full, 100% of the Moon is Illuminated
May 6
Full
May 12
Last Quarter
May 20
New
May 28
First Quarter
Jun 4
Full

Hourly Weather History & Observations

Time (EDT) Temp. Windchill Dew Point Humidity Pressure Visibility Wind Dir Wind Speed Gust Speed Precip Events Conditions
12:53 AM 46.9 °F - 46.0 °F 97% 30.08 in 10.0 mi NE 3.5 mph - N/A   Overcast
1:53 AM 46.0 °F - 45.0 °F 96% 30.07 in 10.0 mi Calm Calm - N/A   Mostly Cloudy
2:26 AM 44.6 °F - 44.6 °F 100% 30.08 in 2.5 mi Calm Calm - N/A   Partly Cloudy
2:34 AM 42.8 °F - 42.8 °F 100% 30.08 in 6.0 mi Calm Calm - N/A   Partly Cloudy
2:51 AM 44.6 °F - 42.8 °F 93% 30.08 in 1.8 mi Calm Calm - N/A   Scattered Clouds
2:53 AM 44.1 °F - 43.0 °F 96% 30.07 in 1.0 mi Calm Calm - N/A   Scattered Clouds
3:00 AM 41.0 °F - 41.0 °F 100% 30.08 in 0.8 mi Calm Calm - N/A   Scattered Clouds
3:03 AM 39.2 °F 37.0 °F 39.2 °F 100% 30.08 in 2.0 mi NNW 3.5 mph - N/A   Partly Cloudy
3:10 AM 42.8 °F - 42.8 °F 100% 30.08 in 6.0 mi Calm Calm - N/A   Partly Cloudy
3:53 AM 42.1 °F - 41.0 °F 96% 30.06 in 5.0 mi Calm Calm - N/A   Partly Cloudy
4:03 AM 41.0 °F - 41.0 °F 100% 30.07 in 2.0 mi Calm Calm - N/A   Partly Cloudy
4:13 AM 42.8 °F - 42.8 °F 100% 30.07 in 5.0 mi Calm Calm - N/A   Partly Cloudy
4:53 AM 41.0 °F - 41.0 °F 100% 30.06 in 5.0 mi Calm Calm - N/A   Overcast
5:53 AM 39.0 °F 35.7 °F 39.0 °F 100% 30.10 in 4.0 mi NW 4.6 mph - N/A   Mostly Cloudy
6:53 AM 46.9 °F - 46.9 °F 100% 30.09 in 10.0 mi ENE 3.5 mph - N/A   Overcast
7:53 AM 50.0 °F - 46.0 °F 86% 30.10 in 10.0 mi NE 10.4 mph - N/A   Clear
8:53 AM 50.0 °F - 46.0 °F 86% 30.11 in 10.0 mi NNE 9.2 mph - N/A   Overcast
9:05 AM 50.0 °F - 46.4 °F 87% 30.13 in 10.0 mi NE 6.9 mph - N/A   Overcast
9:26 AM 48.2 °F - 46.4 °F 93% 30.13 in 10.0 mi North 5.8 mph - N/A   Overcast
9:53 AM 48.9 °F - 45.0 °F 86% 30.13 in 10.0 mi NE 8.1 mph - N/A   Overcast
10:53 AM 50.0 °F - 41.0 °F 71% 30.14 in 10.0 mi NE 11.5 mph - N/A   Overcast
11:53 AM 53.1 °F - 39.9 °F 61% 30.13 in 10.0 mi NE 10.4 mph - N/A   Scattered Clouds
12:53 PM 54.0 °F - 37.9 °F 55% 30.13 in 10.0 mi ENE 6.9 mph - N/A   Clear
1:53 PM 53.1 °F - 37.0 °F 55% 30.12 in 10.0 mi SSE 11.5 mph - N/A   Clear
2:53 PM 53.1 °F - 37.0 °F 55% 30.11 in 10.0 mi SSE 9.2 mph - N/A   Scattered Clouds
3:53 PM 52.0 °F - 35.1 °F 53% 30.08 in 10.0 mi SSE 10.4 mph - N/A   Partly Cloudy
4:53 PM 53.1 °F - 36.0 °F 52% 30.09 in 10.0 mi SSE 6.9 mph - N/A   Clear
5:53 PM 51.1 °F - 35.1 °F 54% 30.07 in 10.0 mi SSE 8.1 mph - N/A   Clear
6:53 PM 50.0 °F - 34.0 °F 54% 30.07 in 10.0 mi SSE 6.9 mph - N/A   Clear
7:53 PM 46.9 °F - 35.1 °F 63% 30.09 in 10.0 mi SE 4.6 mph - N/A   Clear
8:53 PM 45.0 °F 41.8 °F 37.0 °F 74% 30.09 in 10.0 mi SE 5.8 mph - N/A   Clear
9:53 PM 45.0 °F 43.5 °F 37.0 °F 74% 30.10 in 10.0 mi South 3.5 mph - N/A   Clear
10:53 PM 45.0 °F 43.5 °F 37.9 °F 76% 30.09 in 10.0 mi ESE 3.5 mph - N/A   Clear
11:53 PM 43.0 °F - 37.9 °F 82% 30.09 in 10.0 mi Calm Calm - N/A   Clear